This demonstration page uses our WeatherBlox Daily Observations layout. Learn more.

Left ArrowRight Arrow

Hourly Observations for December 14, 2019

Temp ( °F °C ) Dew Point ( °F °C ) Humidity (%) Winds ( mph kmh ) Pressure ( in mb ) Visibility ( mi km ) Precip ( " mm )
12:56 am 00:56 Mostly Cloudy 32 0 27 -3 80 80 NW 13 20 29.96 1015 10 16 0.00 0.00
1:56 am 01:56 Mostly Cloudy 30 -1 23 -5 75 75 NW 16 26 29.96 1015 10 16 0.00 0.00
2:56 am 02:56 Mostly Cloudy 27 -3 19 -7 74 74 NW 15 24 29.99 1016 10 16 0.00 0.00
3:56 am 03:56 Mostly Cloudy 23 -5 16 -9 74 74 WNW 16 26 30.01 1016 10 16 0.00 0.00
4:56 am 04:56 Mostly Cloudy 21 -6 12 -11 68 68 NW 14 22 30.01 1016 10 16 0.00 0.00
5:56 am 05:56 Partly Cloudy 19 -7 12 -11 73 73 NW 13 20 30.04 1017 10 16 0.00 0.00
6:56 am 06:56 Mostly Cloudy 19 -7 12 -11 73 73 NW 10 17 30.06 1018 10 16 0.00 0.00
7:56 am 07:56 Cloudy 19 -7 12 -11 73 73 NW 13 20 30.07 1018 10 16 0.00 0.00
8:56 am 08:56 Mostly Cloudy with Light Snow 18 -8 9 -13 68 68 NNW 8 13 30.09 1019 10 16 0.00 0.00
9:56 am 09:56 Cloudy with Light Snow 19 -7 10 -12 68 68 NNW 7 11 30.10 1019 10 16 0.00 0.00
10:56 am 10:56 Cloudy with Light Snow 19 -7 12 -11 73 73 NW 9 15 30.09 1019 10 16 0.00 0.00
11:41 am 11:41 Mostly Cloudy 21 -6 12 -11 68 68 NW 9 15 30.08 1019 10 16 0.00 0.00
11:56 am 11:56 Cloudy 21 -6 12 -11 68 68 N 6 9 30.08 1019 10 16 0.00 0.00
12:56 pm 12:56 Mostly Sunny 23 -5 12 -11 63 63 NNW 7 11 30.06 1018 10 16 0.00 0.00
1:56 pm 13:56 Mostly Sunny 25 -4 10 -12 54 54 W 8 13 30.06 1018 10 16 0.00 0.00
2:56 pm 14:56 Mostly Sunny 23 -5 10 -12 58 58 NW 8 13 30.06 1018 10 16 0.00 0.00
3:56 pm 15:56 Mostly Sunny 23 -5 10 -12 58 58 NW 10 17 30.07 1018 10 16 0.00 0.00
4:56 pm 16:56 Mostly Clear 21 -6 10 -12 63 63 NW 6 9 30.08 1019 10 16 0.00 0.00
5:56 pm 17:56 Partly Cloudy 21 -6 10 -12 63 63 N 6 9 30.10 1019 10 16 0.00 0.00
6:56 pm 18:56 Mostly Cloudy 19 -7 9 -13 63 63 N 8 13 30.10 1019 10 16 0.00 0.00
7:56 pm 19:56 Partly Cloudy 19 -7 9 -13 63 63 N 5 7 30.11 1020 10 16 0.00 0.00
8:56 pm 20:56 Cloudy 19 -7 9 -13 63 63 N 6 9 30.13 1020 10 16 0.00 0.00
10:56 pm 22:56 Cloudy 18 -8 9 -13 68 68 N 6 9 30.14 1021 10 16 0.00 0.00
11:56 pm 23:56 Cloudy 18 -8 7 -14 62 62 N 6 9 30.14 1021 10 16 0.00 0.00

Powered by AerisWeather